Location: New Mesquite
(33.1168°N, 96.4336°W)
Time: 15:52:53
(UTC+00:00)

Tiangong - Visible Passes

Search period start: 08 December 2022 00:00
Search period end: 18 December 2022 00:00
Orbit: 386 x 392 km, 41.5° (Epoch: 08 December)

Date Brightness Start Highest point End Pass type
(mag) Time Alt. Az. Time Alt. Az. Time Alt. Az.
08 Dec -0.6 00:28:47 10° NW 00:31:24 22° NNE 00:31:42 22° NNE visible
09 Dec -0.2 01:07:17 10° NW 01:08:50 25° NW 01:08:50 25° NW visible
10 Dec -1.2 00:09:09 10° NW 00:12:03 31° NNE 00:13:45 19° ENE visible
10 Dec 1.4 01:46:00 10° WNW 01:46:05 10° WNW 01:46:05 10° WNW visible
11 Dec -2.2 00:47:37 10° WNW 00:50:48 83° SSW 00:51:09 68° SE visible
11 Dec -1.9 23:49:20 10° NW 23:52:28 54° NNE 23:55:35 10° ESE visible
12 Dec 0.5 01:26:48 10° W 01:28:47 19° SW 01:28:47 19° SW visible
13 Dec -0.7 00:27:59 10° WNW 00:30:57 37° SSW 00:33:55 10° SE visible
15 Dec 0.9 00:08:37 10° W 00:10:51 18° SW 00:13:04 10° S visible
